Track COSMOS 1856 now! 10-day predictions COSMOS 1856 is classified as:
1 18117U 87051E 18111.84964667 -.00000000 +00000-0 +10005-3 0 9991 2 18117 074.0038 236.4426 0029125 049.1835 113.0661 12.52484494410442